COSMOS 2251 DEB, 40239

Orbit data source: Space-Track

COSMOS 2251 DEB, 40239 is space debris in LEO originally from a launch on Wed, 16 Jun 1993 UTC launched from the Plesetsk Missile And Space Complex (PKMTR). The debris from Iridium 33, an American commercial communications satellite, has been tracked extensively since its accidental collision with the defunct Russian satellite Cosmos 2251 in 2009. This event, occurring at high speed in low Earth orbit (LEO), generated thousands of pieces of space debris, significantly increasing the risk of further collisions. The Iridium 33 debris cloud has impacted space traffic management and orbital debris mitigation strategies, making it a subject of ongoing study in space situational awareness.

Loading next visibility...
Identifier
40239, 1993-036BVU
Orbit
LEO
Country
Flag of CISCIS
Related business
Manufacturer
Unknown
Mission
Spacecraft
Bus & Motor
Unknown
Mass
Unknown
Launch date (UTC)
1993-06-16 (32 years ago)
Launch vehicle
Unknown
Launch site
Plesetsk Missile And Space Complex (PKMTR)
Object type
Payload
Rocket body
Debris
Shape & HBR
Unknown shape, 0.1 m
Radar Cross Section
Small (<0.1 m²)

Expand to show TLE details & history
Last TLE update: 17 hours ago

TLE from 17 hours ago
0 COSMOS 2251 DEB
1 40239U 93036BVU 25343.12399359  .00003319  00000-0  63515-3 0  9996
2 40239  74.0321 282.7590 0084667  35.0564 340.9261 14.61966821595585
Epoch: 2025-12-09T02:58Z
TLE epoch observation values (Epoch: 2025-12-09T02:58:33.046Z)
Latitude
15.0248°
Longitude
164.389°
Altitude
632.277 km
Speed
7.574 km/s
True Right ascension
19h 08m 33s
True Declination
14° 56' 15"
Sunlit
Object was in daylight at epoch
Visualization orbit readout
Latitude
Unknown
Longitude
Unknown
Altitude
Unknown
Speed
Unknown
Apparent Right ascension
Unknown
Apparent Declination
Unknown
Sunlit
N/A
Visualization observer readout
Local Sidereal Time
17:46:06
Azimuth
Unknown
Elevation
Unknown
Doppler factor
Unknown
Orbital elements
Apogee altitude
744.222 km
Perigee altitude
624.629 km
Semi-major axis
7,062.563 km
Eccentricity
0.00847
Inclination
74.0321°
RAAN
282.759°
Arg. of periapsis
35.0564°
True anomaly
340.60585°
Mean anomaly
340.9261°
Eccentric anomaly
340.7663°
Mean motion
3.65679 °/min
Orbital period
98.45 mins
BSTAR
0.00063515
Loading maneuver chart data...
Computing Atmospheric mass density...

Documentation

Showing up to 5 results
|